User: anonymous   Login
Location: Ellerstadt
(49.4644°N, 8.2615°E)
Time: 02:41:16
(UTC+00:00)
Language:

CZ-2C R/B - Orbit

View from above orbital plane
View from above orbital plane
View from above satellite
View from above satellite

Ground track
Ground track

The orbit data is extracted from the following two-line orbital elements,

1 31114U 07010B   21127.51412761  .00000018  00000-0  26774-4 0  9997
2 31114  98.2352 324.1023 0060571  43.1125 317.4773 14.19359107728976
Epoch (UTC): 07 May 2021 12:20:20
Eccentricity: 0.0060571
inclination: 98.2352°
perigee height: 784 km
apogee height: 871 km
right ascension of ascending node: 324.1023°
argument of perigee: 43.1125°
revolutions per day: 14.19359107
mean anomaly at epoch: 317.4773°
orbit number at epoch: 72897

The dashed part of the orbit path shows where the satellite is in the earth's shadow,  

DLR